Location: Little Suamico
(44.7175°N, 88.0093°W)
Time: 17:06:35
(UTC+00:00)

ISS - Pass Details

Date: 26 April 2021
Orbit: 417 x 422 km, 51.6° (Epoch: 17 May)

Event Time Altitude Azimuth Distance (km) Brightness Sun altitude
Exits shadow 09:58:10 - 207° (SSW) 1,585 -1.3 -9.0°
Reaches altitude 10° 09:58:25 10° 205° (SSW) 1,496 -1.4 -9.0°
Maximum altitude 10:01:28 33° 140° (SE) 730 -2.4 -8.5°
Drops below altitude 10° 10:04:33 10° 74° (ENE) 1,507 0.6 -8.1°
Sets 10:06:46 0° 65° (ENE) 2,375 2.7 -7.7°
